Wind_Speed
13 18 20 17 12 17 16 11 13 8 9 9 12 11 9 10 11 12 12 13 14 17 16 18 20 22 24 24 22 21 21 22 24 24 24 24 26 26 27 26 26 26 25
18 21 22 20 18 17 19 20 26 22 20 19 20 21 21 17 15 15 16 19 21 24 24 24 24 24 26 28 26 25 25 25 25 27 27 28 28 29 29 29 30 29 29
17 22 28 26 24 27 25 22 20 22 25 29 17 19 25 25 22 20 22 26 30 28 28 29 30 29 27 28 31 29 28 27 29 32 31 31 31 32 32 33 32 32 33
25 25 30 29 27 30 28 25 25 22 24 25 22 23 25 25 24 25 24 28 29 31 33 35 34 33 33 32 33 32 32 31 32 34 35 35 34 35 36 36 37 38 37
34 30 30 33 31 34 32 33 29 30 31 30 26 25 26 28 28 29 29 32 33 34 35 35 35 35 36 36 35 36 35 35 35 37 37 37 39 39 37 39 42 43 43
38 36 38 36 32 33 34 35 30 26 31 28 31 31 31 34 35 35 35 35 35 34 33 36 37 38 41 45 44 44 43 43 43 42 42 41 41 43 43 47 46 47 49
41 38 34 36 37 34 32 31 34 32 35 37 37 38 40 37 38 41 42 43 44 43 40 41 42 42 43 44 45 45 45 46 45 47 46 45 45 45 47 51 53 53 53
45 42 41 42 44 42 40 36 36 37 38 40 43 47 46 48 48 48 47 47 49 49 47 43 43 44 44 46 48 49 48 47 48 47 50 49 48 50 52 55 56 57 57
48 49 51 46 49 50 48 48 47 44 44 45 44 46 49 50 51 50 49 52 55 56 54 51 47 45 40 41 46 51 55 54 54 53 51 51 51 52 53 55 58 60 60
55 55 55 59 55 53 51 54 55 58 57 59 63 64 62 61 59 61 59 60 60 63 61 58 53 52 53 50 50 50 54 58 58 57 52 49 51 53 56 58 57 59 61
64 65 64 65 67 65 64 66 68 70 71 70 70 71 73 70 69 69 68 69 70 68 65 64 65 61 58 63 62 63 61 58 58 61 62 61 63 61 60 62 67 63 63
70 71 72 73 75 75 74 73 73 74 74 72 71 74 74 73 74 74 75 73 70 71 69 70 73 70 68 68 72 72 72 67 64 67 69 74 73 66 65 65 66 63 59
65 69 72 71 72 73 73 71 70 69 71 72 71 70 70 71 72 72 74 74 72 71 70 70 72 74 77 77 77 80 79 74 75 76 77 79 79 76 73 70 66 64 66
59 61 61 62 63 64 66 67 68 68 68 69 70 71 72 72 73 74 76 77 76 75 76 75 74 74 76 76 76 74 72 71 74 77 76 80 81 78 76 73 68 66 65
57 59 61 62 63 63 64 65 66 67 69 70 72 73 73 74 75 74 75 75 76 76 75 75 73 73 74 75 76 76 76 76 76 77 74 74 78 81 78 71 68 70 69
58 59 60 61 62 63 64 66 67 68 69 70 71 72 72 74 74 75 75 76 75 75 74 75 76 75 75 78 79 80 80 79 82 82 82 81 82 80 79 76 72 72 72
55 56 58 59 61 63 65 66 68 69 71 72 73 74 75 76 76 77 78 78 78 79 78 77 77 76 77 78 79 81 83 83 84 85 84 82 81 81 80 79 78 78 76
55 57 60 62 64 65 67 68 69 71 72 73 74 75 76 78 79 80 80 81 80 79 79 80 80 81 81 82 83 84 85 85 86 86 86 87 86 86 87 88 86 85 83
58 61 64 66 67 68 70 72 73 74 76 76 77 78 80 81 81 82 82 81 81 81 82 82 82 83 84 84 86 85 86 87 88 89 89 91 90 91 92 92 92 86 83
61 64 66 68 69 72 74 77 79 80 82 82 82 82 83 84 84 84 83 83 83 83 82 84 84 84 84 84 87 86 86 87 87 87 87 88 90 91 93 94 94 93 94
65 68 70 72 73 74 76 79 81 82 82 83 84 84 84 84 83 82 81 80 81 79 79 80 80 79 79 78 79 79 80 80 80 78 80 76 79 85 86 92 88 98 98
67 65 63 65 66 67 68 69 70 72 73 74 74 74 72 71 71 72 71 70 70 68 68 69 68 67 64 62 65 67 71 71 69 70 70 69 68 70 74 82 86 94 97
54 55 57 59 60 62 65 67 70 71 72 73 73 71 69 65 61 61 60 58 58 56 55 56 56 56 57 57 59 61 63 65 66 64 65 65 65 66 66 69 76 85 94
56 58 60 62 64 67 70 71 73 75 75 75 76 73 70 66 60 54 51 49 47 49 49 51 50 49 52 51 52 54 57 58 60 62 61 61 63 64 66 67 70 72 80
57 59 62 64 66 68 71 73 72 74 76 76 74 70 67 63 58 52 47 46 45 47 49 49 45 44 44 45 47 49 50 51 53 55 60 61 62 64 66 68 69 70 76
54 57 61 65 67 69 70 72 74 74 71 69 66 64 59 56 52 48 46 44 44 46 48 44 42 41 40 40 41 43 46 48 51 55 59 63 67 68 68 70 71 72 75
Wind_Direction
274 270 282 296 298 300 302 296 301 269 277 273 274 285 274 273 268 259 254 267 286 293 290 281 272 265 262 263 264 262 259 261 261 263 265 266 267 269 272 277 281 284 287
257 269 284 279 266 274 289 297 309 274 285 281 276 285 289 286 282 283 281 274 283 288 291 291 287 278 273 271 266 264 266 267 267 265 266 267 268 268 269 271 276 280 282
249 273 274 279 284 284 284 279 287 291 296 306 287 291 291 292 288 293 297 301 303 294 295 292 291 283 285 278 277 275 275 277 278 273 270 268 269 268 270 272 273 275 279
233 247 252 270 275 278 275 277 268 269 277 290 285 301 293 279 284 288 295 295 294 291 291 292 289 282 279 279 280 275 276 276 276 276 277 274 272 272 274 275 274 274 277
245 242 251 256 260 269 272 274 271 264 268 270 277 273 275 280 287 286 290 299 303 292 287 280 281 279 273 270 270 270 268 266 272 270 273 273 275 274 276 277 278 276 276
251 258 253 251 262 265 267 268 268 262 259 263 266 268 275 276 278 280 280 285 288 289 286 280 277 281 287 285 279 273 269 268 272 269 265 266 268 268 269 273 276 277 279
252 256 256 256 258 262 263 263 255 251 255 257 254 258 268 273 278 280 281 283 287 287 284 287 279 274 276 273 274 273 273 274 276 277 274 271 273 277 278 278 278 277 279
256 257 261 263 266 270 268 260 261 259 259 261 261 262 269 277 277 278 278 278 282 286 286 280 277 276 273 273 272 274 272 271 272 274 274 272 274 275 277 277 277 277 277
247 250 263 264 265 264 266 268 269 265 270 269 271 272 274 276 280 279 280 286 287 285 281 279 274 273 272 274 269 269 269 270 270 270 268 268 272 274 278 278 279 274 276
250 256 258 268 268 265 266 268 268 271 273 273 278 276 275 278 275 279 280 282 284 285 281 274 264 268 268 271 275 271 270 272 271 270 264 268 273 277 275 279 283 275 274
255 258 264 265 271 274 273 272 275 276 278 277 277 277 278 278 277 275 277 279 282 281 276 271 272 264 265 267 271 272 272 272 269 267 266 271 274 278 281 278 284 278 275
262 263 265 268 271 274 275 275 275 276 277 278 277 278 278 279 280 279 279 279 278 276 275 273 270 269 265 269 268 273 275 274 267 265 264 267 271 274 280 282 280 274 267
263 265 267 270 272 273 274 276 278 278 278 277 277 276 277 277 277 277 278 278 277 277 275 275 272 269 270 271 270 270 269 270 269 264 265 265 268 275 280 283 279 271 267
268 269 271 272 272 273 276 277 277 278 278 277 277 277 277 277 277 277 278 278 277 276 275 274 273 271 272 270 271 271 272 270 268 267 268 268 271 272 276 277 274 267 269
273 275 276 277 277 276 276 275 276 277 277 277 276 276 276 275 276 276 275 274 275 276 276 275 274 274 274 274 273 273 272 271 272 270 271 272 269 274 276 271 270 266 265
273 275 276 277 279 280 280 280 280 279 279 279 279 278 278 278 278 279 278 278 276 275 274 273 273 273 273 273 275 274 274 274 274 272 272 271 271 273 272 272 268 268 265
277 278 279 278 277 278 279 279 279 279 278 277 277 277 277 276 275 276 276 275 276 277 277 276 275 275 274 272 270 270 270 269 269 270 270 270 269 267 265 266 267 267 266
279 280 280 280 280 280 280 280 280 279 278 278 278 278 278 277 276 276 276 276 276 277 277 277 276 275 275 274 273 272 272 271 270 269 270 269 268 267 264 261 263 264 263
283 282 282 282 282 281 280 279 279 279 279 278 277 277 277 277 277 277 277 277 277 276 276 275 275 274 274 273 272 271 270 270 270 270 270 269 268 267 265 264 260 257 257
286 285 286 286 285 284 284 283 282 281 280 280 279 279 279 280 280 280 280 280 279 279 278 277 277 275 274 274 274 272 270 268 267 268 268 267 267 266 264 263 262 258 253
290 289 288 288 287 286 286 285 285 286 286 285 284 282 282 282 281 281 282 281 280 280 279 278 278 276 275 274 274 274 273 271 271 270 268 266 263 262 263 261 262 261 257
292 294 293 290 289 291 292 292 291 290 288 287 285 283 281 281 281 282 282 281 281 281 280 278 277 275 274 272 271 271 272 274 274 271 271 269 268 265 261 259 257 252 259
297 296 297 298 299 300 300 299 297 295 293 292 290 288 287 283 279 279 281 281 282 283 283 283 283 280 274 273 272 270 271 273 275 276 275 273 271 269 266 262 259 256 251
300 300 300 300 301 299 298 296 294 294 293 291 289 288 287 286 283 279 278 280 280 282 289 292 289 281 277 277 275 273 274 275 276 275 276 276 274 273 272 269 265 262 258
302 302 302 301 299 297 296 295 294 292 291 288 286 284 283 282 280 273 273 275 280 286 294 298 294 289 284 280 279 280 282 283 282 282 282 280 278 277 275 273 270 266 265
305 306 304 302 300 300 299 298 298 297 293 289 287 283 281 279 277 271 268 274 281 289 296 297 293 291 288 286 284 281 281 283 284 285 285 284 284 282 281 280 278 275 272
Height
10975 10973 10973 10972 10973 10971 10971 10971 10972 10971 10971 10971 10971 10970 10969 10970 10969 10968 10968 10967 10966 10966 10966 10965 10964 10963 10962 10961 10960 10960 10960 10960 10960 10960 10960 10960 10960 10960 10960 10960 10960 10960 10959
10971 10971 10970 10969 10969 10969 10969 10969 10969 10968 10969 10970 10970 10970 10970 10969 10968 10968 10967 10966 10966 10964 10963 10962 10962 10961 10960 10959 10958 10956 10956 10956 10956 10955 10955 10955 10955 10955 10954 10954 10955 10954 10954
10968 10966 10964 10965 10965 10966 10966 10965 10966 10967 10966 10967 10966 10967 10966 10966 10966 10965 10964 10964 10964 10962 10961 10960 10958 10958 10957 10956 10956 10955 10954 10954 10953 10952 10952 10950 10950 10950 10950 10950 10949 10948 10949
10962 10964 10961 10961 10961 10960 10961 10960 10960 10961 10961 10960 10960 10961 10960 10960 10961 10961 10960 10959 10958 10957 10956 10955 10955 10954 10952 10952 10952 10951 10950 10949 10948 10947 10947 10946 10945 10945 10945 10945 10944 10943 10942
10955 10956 10956 10956 10956 10955 10955 10955 10956 10955 10954 10955 10955 10953 10954 10955 10954 10954 10954 10953 10952 10951 10950 10949 10949 10947 10946 10945 10944 10943 10942 10941 10941 10940 10939 10939 10939 10938 10938 10938 10938 10937 10937
10949 10949 10950 10950 10950 10950 10949 10948 10949 10949 10948 10947 10947 10947 10946 10946 10946 10946 10945 10945 10945 10944 10943 10943 10943 10941 10940 10939 10938 10937 10935 10934 10934 10933 10931 10930 10931 10930 10930 10929 10929 10929 10930
10943 10944 10943 10944 10944 10944 10944 10943 10941 10941 10941 10940 10938 10938 10938 10937 10937 10937 10938 10937 10937 10937 10936 10935 10934 10933 10932 10930 10929 10929 10928 10927 10926 10925 10925 10924 10923 10922 10921 10920 10919 10919 10920
10936 10938 10937 10937 10938 10938 10937 10936 10935 10934 10933 10933 10932 10931 10931 10930 10929 10928 10927 10928 10928 10928 10927 10926 10925 10924 10922 10922 10921 10919 10917 10917 10916 10915 10914 10914 10915 10914 10913 10912 10911 10910 10909
10929 10929 10928 10929 10929 10929 10929 10928 10928 10926 10925 10924 10924 10924 10923 10921 10919 10919 10918 10917 10916 10917 10916 10915 10915 10914 10913 10911 10910 10908 10907 10906 10905 10905 10904 10903 10904 10904 10903 10901 10900 10900 10899
10921 10920 10920 10918 10919 10920 10919 10919 10917 10915 10916 10916 10915 10913 10913 10910 10909 10908 10908 10905 10904 10904 10904 10905 10902 10902 10901 10901 10900 10897 10895 10896 10894 10893 10892 10893 10891 10891 10891 10890 10889 10889 10887
10912 10911 10910 10909 10909 10909 10909 10908 10908 10905 10903 10902 10901 10900 10897 10897 10896 10896 10893 10893 10891 10890 10890 10890 10890 10888 10887 10887 10886 10884 10884 10884 10881 10881 10879 10880 10877 10877 10877 10877 10876 10876 10875
10902 10901 10900 10900 10898 10897 10895 10895 10894 10892 10889 10887 10886 10884 10883 10880 10879 10878 10878 10877 10875 10875 10874 10874 10874 10874 10872 10873 10872 10869 10869 10869 10868 10865 10864 10862 10861 10862 10862 10861 10861 10861 10861
10890 10890 10889 10889 10888 10886 10884 10882 10880 10876 10875 10874 10871 10869 10867 10866 10863 10862 10861 10860 10859 10858 10858 10858 10857 10856 10854 10853 10854 10854 10853 10853 10851 10849 10848 10847 10845 10846 10846 10843 10845 10846 10846
10879 10879 10878 10877 10876 10873 10870 10868 10866 10864 10861 10859 10857 10855 10853 10850 10849 10846 10843 10842 10842 10842 10841 10840 10840 10838 10836 10835 10833 10834 10834 10834 10833 10830 10831 10831 10830 10828 10827 10827 10826 10828 10830
10869 10868 10866 10864 10862 10860 10858 10855 10853 10850 10848 10845 10842 10839 10837 10834 10832 10830 10827 10826 10824 10823 10822 10820 10820 10819 10816 10814 10813 10814 10815 10813 10811 10810 10812 10812 10811 10811 10808 10808 10810 10810 10813
10859 10857 10855 10852 10849 10847 10843 10840 10838 10835 10831 10828 10825 10822 10819 10815 10814 10810 10808 10805 10804 10804 10805 10803 10801 10800 10798 10795 10792 10792 10793 10792 10790 10790 10792 10793 10791 10789 10789 10788 10791 10793 10795
10848 10846 10843 10840 10836 10834 10831 10827 10823 10818 10813 10809 10806 10804 10801 10798 10795 10792 10789 10787 10786 10783 10782 10782 10781 10780 10777 10775 10775 10772 10771 10772 10770 10769 10769 10772 10771 10771 10770 10769 10771 10773 10776
10836 10833 10829 10826 10823 10819 10815 10810 10805 10800 10795 10790 10787 10784 10781 10777 10775 10772 10770 10767 10766 10764 10763 10761 10760 10758 10757 10754 10751 10749 10748 10747 10746 10745 10747 10747 10748 10749 10748 10748 10751 10752 10753
10824 10820 10815 10811 10807 10802 10796 10790 10784 10780 10776 10773 10769 10765 10761 10757 10755 10753 10750 10748 10746 10744 10742 10739 10738 10735 10732 10730 10727 10725 10725 10722 10722 10722 10724 10722 10723 10723 10722 10723 10727 10731 10732
10811 10805 10800 10794 10788 10781 10776 10770 10765 10760 10755 10752 10749 10745 10740 10736 10732 10728 10728 10725 10722 10722 10720 10716 10714 10711 10710 10708 10700 10700 10699 10698 10701 10700 10700 10698 10697 10697 10696 10696 10697 10704 10707
10794 10788 10782 10776 10770 10763 10756 10751 10746 10740 10735 10730 10726 10722 10719 10716 10712 10708 10705 10703 10700 10699 10696 10693 10690 10687 10686 10685 10679 10674 10671 10672 10676 10676 10675 10677 10676 10673 10673 10672 10671 10672 10676
10776 10771 10763 10756 10751 10747 10740 10733 10726 10719 10715 10710 10705 10701 10697 10694 10691 10689 10685 10683 10678 10678 10675 10671 10669 10666 10666 10665 10661 10658 10651 10649 10654 10652 10653 10653 10654 10651 10651 10649 10651 10651 10649
10763 10757 10749 10742 10738 10731 10724 10717 10709 10703 10696 10688 10683 10678 10675 10674 10674 10671 10669 10665 10661 10658 10656 10652 10649 10646 10647 10648 10645 10642 10638 10635 10632 10634 10631 10631 10629 10627 10627 10626 10626 10626 10627
10750 10743 10737 10731 10725 10717 10709 10701 10692 10684 10676 10670 10664 10659 10657 10653 10652 10652 10651 10650 10647 10644 10641 10639 10635 10632 10630 10631 10629 10626 10623 10620 10616 10614 10613 10611 10607 10605 10604 10602 10600 10602 10598
10738 10731 10725 10719 10711 10702 10693 10683 10674 10665 10657 10648 10642 10639 10637 10635 10634 10635 10636 10636 10634 10632 10629 10625 10620 10617 10615 10615 10614 10610 10608 10604 10600 10596 10592 10590 10587 10584 10582 10577 10576 10577 10572
10727 10721 10714 10704 10694 10684 10674 10665 10655 10644 10634 10626 10621 10619 10618 10617 10617 10618 10621 10623 10622 10620 10616 10612 10609 10606 10603 10601 10600 10598 10596 10592 10587 10582 10577 10571 10565 10562 10559 10554 10553 10551 10547